Regional Weather Roundup
Issued by NWS

Home | Current Version | Previous Version | Text Only | Print | Product List | Glossary On
Versions: 1 2 3 4 5 6 7 8 9 10 11 12 13 14 15 16 17 18 19 20 21 22 23 24 25 26 27 28 29 30 31 32 33 34 35 36 37 38 39 40 41 42 43 44 45 46 47 48 49 50
000
ASUS43 KLSX 010607
RWRMO

WEATHER SUMMARY FOR MISSOURI
NATIONAL WEATHER SERVICE SPRINGFIELD MO
100 AM CDT SAT NOV 01 2014

NOTE: "FAIR" INDICATES FEW OR NO CLOUDS BELOW 12,000 FEET WITH NO
       SIGNIFICANT WEATHER AND/OR OBSTRUCTIONS TO VISIBILITY.
       CURRENT SKY AND/OR WEATHER CONDITIONS ARE NOT AVAILABLE FOR
       CHILLICOTHE AND FARMINGTON.

MOZ001>031-035>038-043-044-053-054-010700-
...NORTHERN AND WESTERN MISSOURI...

CITY           SKY/WX    TMP DP  RH WIND       PRES   REMARKS
KANSAS CTY INT PTCLDY    32  21  64 NE5       30.46S WCI  27
6HR MIN TEMP:  31; 6HR MAX TEMP:  36;

KANSAS C DTWN  PTCLDY    34  19  54 CALM      30.47S
6HR MIN TEMP:  32; 6HR MAX TEMP:  41;

LEE`S SUMMIT   CLEAR     33  19  56 NE6       30.45F WCI  28
6HR MIN TEMP:  32; 6HR MAX TEMP:  38;

ST JOSEPH      PTCLDY    25  19  78 N3        30.48S
6HR MIN TEMP:  23; 6HR MAX TEMP:  34;

CHILLICOTHE      N/A     30  21  69 CALM      30.49S
6HR MIN TEMP:  30; 6HR MAX TEMP:  39;

KIRKSVILLE     CLEAR     27  20  75 N6        30.46S WCI  20
6HR MIN TEMP:  27; 6HR MAX TEMP:  35;


$$
MOZ066>068-077>081-088>096-101>105-010700-
...SOUTHWEST MISSOURI...

CITY           SKY/WX    TMP DP  RH WIND       PRES   REMARKS
SPRINGFIELD    CLEAR     31  19  61 N6        30.41S WCI  25
6HR MIN TEMP:  29; 6HR MAX TEMP:  39;

JOPLIN         CLEAR     28  24  85 NE5       30.44F WCI  23
6HR MIN TEMP:  28; 6HR MAX TEMP:  40;


$$
MOZ032>034-039>042-045>050-055>058-069>072-010700-
...CENTRAL MISSOURI...

CITY           SKY/WX    TMP DP  RH WIND       PRES   REMARKS
COLUMBIA       CLEAR     29  21  72 N7        30.43S WCI  22
6HR MIN TEMP:  29; 6HR MAX TEMP:  38;

JEFFERSON CITY CLEAR     34  21  59 N5        30.44S WCI  30
6HR MIN TEMP:  31; 6HR MAX TEMP:  42;

ROLLA          CLEAR     29  21  72 NW7       30.39R WCI  22
6HR MIN TEMP:  29; 6HR MAX TEMP:  37;

SEDALIA        CLEAR     30  21  69 NW5       30.46R WCI  25
6HR MIN TEMP:  30; 6HR MAX TEMP:  39;

WHITEMAN AFB   CLEAR     28  21  77 NE5       30.45S WCI  22
WARRENSBURG    CLEAR     30  21  69 NW3       30.46S
OSAGE BEACH    CLEAR     28  21  74 NW3       30.42S

$$
MOZ051-052-059>065-010700-
...EAST CENTRAL MISSOURI...

CITY           SKY/WX    TMP DP  RH WIND       PRES   REMARKS
ST LOUIS INTL  CLEAR     36  22  56 N10       30.39R WCI  28
6HR MIN TEMP:  35; 6HR MAX TEMP:  42;

SPIRIT OF STL  CLEAR     35  22  58 N7        30.41R WCI  29
6HR MIN TEMP:  35; 6HR MAX TEMP:  41;

ST CHARLES     CLEAR     34  22  61 N10       30.41R WCI  26
6HR MIN TEMP:  34; 6HR MAX TEMP:  41;


$$
MOZ072>076-082>087-097>100-106>115-010700-
...SOUTH CENTRAL AND SOUTHEAST MISSOURI...

CITY           SKY/WX    TMP DP  RH WIND       PRES   REMARKS
CAPE GIRARDEAU CLEAR     37  22  54 N9        30.33S
6HR MIN TEMP:  37; 6HR MAX TEMP:  43;

FARMINGTON     CLEAR     32  19  59 NW7       30.36S WCI  26
6HR MIN TEMP:  32; 6HR MAX TEMP:  39;

POPLAR BLUFF   CLEAR     34  20  56 NW8       30.35S WCI  27
6HR MIN TEMP:  34; 6HR MAX TEMP:  43;

WEST PLAINS    CLEAR     31  18  58 N6        30.39S WCI  25
6HR MIN TEMP:  31; 6HR MAX TEMP:  41;


$$



USA.gov is the U.S. government's official web portal to all federal, state and local government web resources and services.